軌道要素
Epoch 2019 July 16.0 TT = JDT 2458680.5
T 2019 July 23.63496 TT Rudenko
q 2.0050032 (2000.0) P Q
n 0.08193613 Peri. 42.42339 +0.21728451 -0.94518306
a 5.2499167 Node 37.05864 +0.75131815 +0.00252581
e 0.6180886 Incl. 23.85878 +0.62314403 +0.32653118
P 12.0
From 120 observations 2007 Oct. 12-2020 Apr. 19, mean residual 0".7.
|